TIME,DELAY(SENSOR),PRES,T(CTD),SAL,OXYGEN,RAWTEMP,T(OPTODE),TCPHASE,FLUOR,BETA(BETA700),BETA(BETA412),BETA(BETA440),CDOM,C(CSC),ED(ED411.90),ED(ED443.80),ED(ED489.40),ED(ED554.70),LU(LU412.20),LU(LU443.80),LU(LU489.40),LU(LU555.00),COMP,TILTX,TILTX(TILTY),CHECK
1379257621,5803,497.4599914550781000,17.6679992675781250,36.4846992492675800,202.8849029541015600,166.3468933105468800,17.6632499694824220,32.5761184692382800,120,4130,48,51,47,9382,2146959360,2147516662,2147270509,2147453229,2147080704,2146953737,2147656082,2147132224,2154,-1,8,59450
1379257784,5803,483.9200134277344000,17.7518005371093750,36.4958000183105500,205.1226959228515600,163.5258026123047000,17.7483997344970700,32.4091415405273440,118,4130,48,50,47,9381,2146956443,2147517595,2147269906,2147452544,2147079076,2146951808,2147654244,2147127286,1427,-1,8,51181
1379257896,5806,473.0700073242187500,17.8113994598388670,36.5047988891601560,206.3000946044922000,161.1898040771484400,17.8189201354980470,32.3101310729980500,117,4130,48,50,48,9383,2146960064,2147517586,2147269138,2147451620,2147078262,2146956891,2147654811,2147128320,842,-1,8,35550
1379258006,5809,462.5599975585937500,17.9048995971679700,36.5190010070800800,207.3840026855468800,158.3034973144531200,17.9060592651367200,32.2092704772949200,119,4130,48,51,47,9384,2146963949,2147517888,2147269101,2147452096,2147081206,2146955830,2147657124,2147125257,31,-1,8,40515
1379258129,5805,451.1300048828125000,17.9930992126464840,36.5306015014648440,207.9488067626953000,155.6127014160156200,17.9873104095459000,32.1408805847168000,118,4130,47,50,47,9381,2146961389,2147517988,2147273325,2147453897,2147077851,2146956388,2147651766,2147126646,2564,-1,8,3900
1379258250,5807,440.0599975585937500,18.0638008117675780,36.5391998291015600,208.4474029541015600,153.3639068603515600,18.0552291870117200,32.0820808410644500,118,4130,48,50,46,9383,2146963593,2147515309,2147268836,2147448466,2147072740,2146953837,2147648896,2147126994,3153,-1,8,64065
1379258374,5809,428.9299926757812500,18.1366996765136720,36.5457000732421900,209.7805023193359400,150.8840026855468800,18.1301307678222660,31.9742393493652340,119,4130,48,50,47,9386,2146962989,2147516187,2147270070,2147450020,2147071524,2146956900,2147652452,2147125485,1747,-2,8,65192
1379258495,5808,418.3099975585937500,18.1644001007080080,36.5477981567382800,212.8323059082031200,149.8437042236328000,18.1615600585937500,31.7934303283691400,118,4130,47,49,47,9387,2146961627,2147518582,2147271844,2147447963,2147077385,2146958226,2147652534,2147126756,164,-1,8,6080
1379258616,5807,407.6900024414062500,18.2019996643066400,36.5486984252929700,214.0451049804687500,148.6049041748047000,18.1989898681640620,31.7108802795410160,118,4130,48,50,47,9388,2146961060,2147515154,2147266560,2147448091,2147074212,2146955501,2147652315,2147125769,2997,-2,8,15998
1379258750,5807,395.8800048828125000,18.2411003112792970,36.5508003234863300,214.9996032714843800,147.3854980468750000,18.2358303070068360,31.6428794860839840,119,4130,48,50,47,9388,2146960155,2147513462,2147269056,2147447643,2147073462,2146961819,2147654052,2147124754,2384,-1,8,61839
1379258871,5803,385.2000122070312500,18.2730007171630860,36.5517997741699200,216.2707977294922000,146.3560028076172000,18.2669391632080080,31.5615406036376950,118,4130,48,50,46,9387,2146957449,2147514386,2147270857,2147446939,2147082852,2146962011,2147651977,2147128201,1663,-1,8,62205
1379258995,5807,373.9599914550781000,18.3027000427246100,36.5525016784668000,218.8081054687500000,145.3092956542968800,18.2985706329345700,31.4134407043457030,118,4130,49,50,48,9387,2146961170,2147517065,2147267126,2147449124,2147083785,2146960365,2147650550,2147130240,1334,-1,8,63065
1379259116,5806,362.7799987792969000,18.3239002227783200,36.5530014038085940,218.7263946533203000,144.5424957275390600,18.3217391967773440,31.4071502685546880,118,4130,48,50,47,9391,2146961920,2147515090,2147265664,2147448201,2147075474,2146957184,2147654464,2147127414,481,-1,8,21500
1379259237,5803,351.7699890136719000,18.3584995269775400,36.5559005737304700,220.8981933593750000,143.5196075439453000,18.3526592254638670,31.2803497314453120,118,4130,47,50,48,9388,2146959360,2147514925,2147269604,2147447689,2147076589,2146958336,2147655332,2147125842,3272,-1,8,16526
1379259360,5805,341.0000000000000000,18.3768997192382800,36.5527992248535160,222.7861938476562500,142.7355957031250000,18.3763504028320300,31.1726608276367200,117,4130,48,50,47,9387,2146959762,2147518180,2147269787,2147447232,2147079945,2146958198,2147658934,2147126747,2022,-1,8,65317
1379259481,5805,330.5400085449219000,18.4102001190185550,36.5569992065429700,222.5475006103515600,141.7830047607422000,18.4051494598388670,31.1719093322753900,117,4130,48,50,47,9387,2146961124,2147517741,2147269229,2147448091,2147072246,2146963611,2147651794,2147126729,1312,-1,8,45543
1379259616,5807,318.9299926757812500,18.4253997802734380,36.5555000305175800,225.5865020751953000,141.2429046630859400,18.4214706420898440,31.0104503631591800,119,4130,49,50,46,9387,2146959360,2147517312,2147269302,2147445869,2147072548,2146956333,2147654198,2147125037,389,-1,8,15937
1379259737,5804,308.6499938964844000,18.4923992156982420,36.5690994262695300,222.6201934814453000,138.8457031250000000,18.4939403533935550,31.1287498474121100,118,4130,48,50,47,9386,2146959360,2147516004,2147269165,2147443830,2147080192,2146957440,2147653184,2147127049,3315,-1,8,64807
1379259869,5803,297.5199890136719000,18.5615005493164060,36.5765991210937500,215.1766967773437500,136.7301940917968800,18.5579109191894530,31.4888992309570300,119,4130,48,50,47,9388,2146961984,2147516324,2147268498,2147446665,2147072484,2146960621,2147662299,2147126637,2528,-1,8,58881
1379260003,5806,286.3500061035156000,18.6005992889404300,36.5796012878418000,211.5941009521484400,135.3106994628906200,18.6008396148681640,31.6626605987548830,118,4130,47,50,46,9386,2146960118,2147514322,2147270592,2147445851,2147078226,2146963062,2147666075,2147126546,1988,-1,8,43521
1379260135,5807,275.3200073242187500,18.6480007171630860,36.5808982849121100,211.0720062255859400,133.7895965576172000,18.6468391418457030,31.6705894470214840,119,4130,47,50,47,9384,2146962194,2147515593,2147271990,2147445723,2147075702,2146963465,2147671478,2147126500,777,-1,8,30496
1379260270,5805,264.0100097656250000,18.6613998413085940,36.5680007934570300,212.9824066162109400,133.4328002929687500,18.6576309204101560,31.5622196197509770,117,4130,48,49,47,9383,2146956754,2147515200,2147269010,2147447195,2147077650,2146970084,2147675419,2147128402,3504,-2,8,28590
1379260391,5806,253.6600036621093800,18.7597999572753900,36.5812988281250000,215.2689056396484400,130.2393951416015600,18.7542304992675780,31.3963298797607420,117,4130,48,50,47,9385,2146960082,2147514678,2147266249,2147445586,2147076022,2146969124,2147683510,2147129938,2350,-1,8,34686
1379260526,5807,241.9600067138672000,18.8640995025634770,36.5954017639160160,208.8144073486328000,126.8469009399414000,18.8568801879882800,31.7002201080322270,118,4130,47,50,47,9381,2146956132,2147517248,2147268699,2147444416,2147070930,2146971547,2147685650,2147129874,1900,-1,8,17948
1379260647,5807,231.3500061035156200,18.8924999237060550,36.5845985412597660,210.0287017822265600,125.9764022827148400,18.8832302093505860,31.6215801239013670,120,4130,48,50,47,9382,2146960905,2147516324,2147270811,2147443922,2147070326,2146974646,2147693284,2147130340,1193,-2,8,36652
1379260779,5808,220.1600036621093800,18.9349994659423830,36.5787010192871100,215.5198059082031200,124.2883987426757800,18.9343204498291000,31.3031997680664060,119,4130,48,49,47,9382,2146956553,2147516498,2147269613,2147443840,2147079232,2146993307,2147736402,2147133366,810,-1,8,51849
1379260946,5808,211.0500030517578000,19.1072006225585940,36.6021995544433600,214.4685974121093800,118.5190963745117200,19.1090106964111330,31.2813301086425780,118,4130,48,50,47,9408,2146960969,2147515136,2147272237,2147443456,2147078427,2147000329,2147759222,2147132781,1575,-1,8,64307
1379261230,5803,197.0700073242187500,19.2759990692138670,36.5945014953613300,211.9367980957031200,113.2027969360351600,19.2700500488281250,31.3457908630371100,123,4130,47,50,46,9438,2146956022,2147518427,2147271588,2147441353,2147080758,2147030637,2147803977,2147134710,1539,-1,8,64851
1379261285,5808,192.0099945068359400,19.3640995025634770,36.5970001220703100,215.0697021484375000,109.4711990356445300,19.3831501007080080,31.1283607482910160,121,4130,47,50,47,9432,2146960667,2147519030,2147277403,2147444589,2147082806,2147049737,2147839021,2147137197,1104,-1,8,2915
1379261340,5805,186.9199981689453000,19.5464000701904300,36.6111984252929700,216.4557037353515600,104.3948974609375000,19.5370597839355470,30.9876308441162100,117,4130,48,51,47,9431,2146958619,2147521389,2147276891,2147445778,2147080896,2147065691,2147870683,2147138368,1102,-1,8,5784
1379261395,5806,181.7899932861328000,19.6350002288818360,36.6264991760253900,215.1271972656250000,100.4272994995117200,19.6574096679687500,31.0049190521240230,123,4130,49,50,47,9435,2146958034,2147518153,2147277129,2147442916,2147092745,2147083968,2147908736,2147141065,1184,-1,9,16471
1379261475,5804,174.8000030517578000,19.7280998229980470,36.6262016296386700,212.7012023925781200,98.2248229980468800,19.7242393493652340,31.1042194366455080,123,4130,48,50,47,9437,2146961901,2147519872,2147278857,2147440685,2147096402,2147145234,2148010934,2147148836,1073,-1,8,27307
1379261530,5805,170.3000030517578000,19.7523994445800780,36.6220016479492200,212.3321990966797000,97.2232513427734400,19.7546405792236330,31.1107501983642580,119,4130,48,50,47,9438,2146958235,2147520539,2147282002,2147439542,2147112292,2147168420,2148064365,2147150006,404,-2,8,43080
1379261585,5808,165.8699951171875000,19.8586006164550780,36.6347999572753900,212.6175994873047000,93.6566772460937500,19.8629093170166000,31.0479393005371100,119,4130,47,50,47,9436,2146959990,2147521645,2147283035,2147437997,2147118985,2147220114,2148153234,2147157010,116,-1,8,5735
1379261640,5805,161.5700073242187500,19.9069004058837900,36.6147003173828100,214.2308044433593800,92.5629501342773400,19.8961200714111330,30.9474296569824220,119,4130,47,50,46,9428,2146960521,2147524315,2147288667,2147440768,2147130432,2147257828,2148213778,2147163072,337,-2,9,58004
1379261695,5803,157.3500061035156200,19.9825992584228500,36.6105995178222660,216.7341003417968800,89.6639633178711000,19.9841709136962900,30.7775001525878900,122,4130,47,50,48,9426,2146964452,2147526390,2147286985,2147440987,2147138587,2147305252,2148294811,2147166857,418,-1,8,20526
1379261780,5808,151.6100006103515600,20.1467990875244140,36.6124992370605500,217.8334960937500000,84.5789871215820300,20.1386795043945300,30.6532897949218750,126,4130,47,50,48,9427,2146960603,2147527533,2147292626,2147437659,2147157787,2147363904,2148388754,2147173412,121,-1,8,29896
1379261835,5807,148.4400024414062500,20.2042999267578120,36.6077995300293000,218.8186035156250000,82.4641189575195300,20.2029705047607420,30.5746307373046880,120,4130,48,50,45,9424,2146964964,2147527360,2147294893,2147440649,2147169444,2147409947,2148466550,2147177042,181,-1,8,59261
1379261912,5805,144.1900024414062500,20.4542999267578120,36.6132011413574200,218.5661010742187500,74.9921569824218800,20.4302406311035160,30.4894294738769530,119,4130,49,50,47,9420,2146963017,2147534619,2147296338,2147436059,2147194075,2147486646,2148578523,2147185133,3022,-1,8,57053
1379261989,5807,140.0299987792968800,20.6413002014160160,36.6193008422851560,219.6206970214843800,68.3994216918945300,20.6309509277343750,30.3488998413085940,119,4130,47,51,46,9415,2146965778,2147535104,2147301933,2147436562,2147224585,2147578331,2148721024,2147197293,3548,-2,9,58522
1379262058,5808,136.3699951171875000,20.7315006256103500,36.6011009216308600,219.2843017578125000,65.4712219238281200,20.7201499938964840,30.3279399871826170,122,4130,47,49,47,9412,2146963574,2147533522,2147298258,2147441718,2147225307,2147524964,2148595995,2147190820,621,-1,8,40503
1379262135,5806,132.5200042724609400,20.8568000793457030,36.5976982116699200,217.9470062255859400,61.5578689575195300,20.8394203186035160,30.3453598022460940,123,4130,46,50,47,9407,2146965019,2147538870,2147310226,2147438308,2147288237,2147769536,2149007926,2147217481,926,-1,8,29284
1379262223,5804,128.8000030517578000,20.9298992156982420,36.5978012084960940,216.0950927734375000,59.2346992492675800,20.9102497100830080,30.4106101989746100,123,4130,47,49,46,9403,2146966253,2147543405,2147317686,2147436900,2147341467,2147902966,2149220516,2147233910,1405,-1,9,8578
1379262344,5806,125.1399993896484400,21.1110992431640620,36.6156997680664060,217.9519042968750000,53.0495185852050800,21.0989494323730470,30.2343006134033200,123,4130,47,50,48,9406,2146971520,2147547026,2147327131,2147434139,2147399908,2148040246,2149404132,2147249490,641,-1,9,26592
1379262480,5806,120.7399978637695300,21.3185997009277340,36.6091003417968750,224.9420013427734400,46.2299880981445300,21.3071994781494140,29.7941703796386720,121,4130,47,50,47,9402,2146977828,2147555456,2147337179,2147438070,2147500507,2148267693,2149744649,2147279222,882,-1,8,8475
1379262579,5805,117.1200027465820300,21.3985996246337900,36.5956993103027340,225.4163970947265600,43.4871711730957000,21.3910198211669920,29.7353992462158200,124,4130,47,50,46,9396,2146973796,2147559478,2147354130,2147432923,2147603382,2148477632,2150033206,2147301120,785,-1,9,62062
1379262667,5808,113.9100036621093800,21.5284996032714840,36.6049995422363300,228.2872009277343800,39.4864883422851560,21.5133399963378900,29.5440902709960940,124,4130,48,50,49,9397,2146979766,2147565741,2147361956,2147434139,2147728594,2148724443,2150362450,2147331794,611,-1,9,16693
1379262774,5803,109.1699981689453100,21.7844009399414060,36.6035003662109400,231.5021972656250000,31.4745998382568360,21.7585296630859380,29.2877502441406250,123,4130,47,51,47,9388,2146986523,2147582683,2147380470,2147435638,2147981202,2149228827,2151025773,2147393673,1364,-1,9,45631
1379262851,5806,105.7699966430664000,22.0403003692626950,36.5927009582519500,233.4880981445312500,23.7693500518798830,21.9946403503417970,29.0962009429931640,124,4130,48,50,47,9376,2146997056,2147590546,2147397632,2147435181,2148187218,2149607817,2151517604,2147436342,2039,-1,9,63363
1379262961,5807,102.1100006103515600,22.2306995391845700,36.5918998718261700,239.6584014892578000,17.1343307495117200,22.1981906890869140,28.7279396057128900,123,4130,48,51,47,9372,2147008411,2147609636,2147419318,2147437202,2148466797,2150091858,2152131584,2147499145,2198,-1,8,38097
1379263058,5804,98.9800033569336000,22.3600997924804700,36.5820007324218750,245.5090026855468800,11.2106504440307620,22.3801307678222660,28.3922691345214840,123,4130,48,50,47,9359,2147019364,2147627117,2147448841,2147436260,2148833398,2150687140,2152882340,2147576758,2396,-1,9,21443
1379263113,5803,96.8899993896484400,22.5158004760742200,36.5797004699707000,250.3748931884765600,7.2661218643188480,22.5013809204101560,28.1315193176269530,122,4130,48,50,47,9368,2147029037,2147642230,2147466377,2147438582,2149107474,2151118244,2153395958,2147628717,2468,-1,8,10394
1379263168,5805,95.1900024414062500,22.6040992736816400,36.5740013122558600,256.2178955078125000,3.9528880119323730,22.6032905578613280,27.8431606292724600,123,4130,49,50,46,9368,2147043108,2147660882,2147492800,2147438016,2149465892,2151691456,2154068873,2147698605,2056,-2,9,45072
1379263245,5803,93.1600036621093800,22.7331008911132800,36.5717010498046900,258.2290039062500000,0.2777338027954102,22.7164096832275400,27.7142791748046880,124,4130,49,50,46,9349,2147062116,2147686473,2147532233,2147440566,2149947830,2152417782,2154876973,2147784265,1270,-1,9,45371
1379263322,5805,91.2399978637695300,22.9129009246826170,36.5564002990722660,270.3994140625000000,-5.5178937911987305,22.8949508666992200,27.1542491912841800,124,4130,48,50,47,9365,2147081225,2147712603,2147576027,2147442139,2150458816,2153182052,2155662976,2147873170,599,-1,9,21212
1379263407,5808,88.8000030517578100,23.1630992889404300,36.5457000732421900,287.4523010253906000,-14.2892303466796880,23.1655406951904300,26.4059200286865230,122,4130,47,50,46,9364,2147089536,2147709705,2147562203,2147438838,2150531465,2152958701,2155014747,2147830226,713,-1,8,37279
1379263462,5806,86.8799972534179700,23.3239994049072270,36.5430984497070300,290.8125000000000000,-18.4983100891113280,23.2955608367919920,26.2343807220459000,123,4130,48,50,48,9361,2147144448,2147792832,2147666249,2147445814,2151948022,2155360045,2157913682,2148120036,1008,-1,9,12094
1379263528,5805,85.2799987792968800,23.5356006622314450,36.5471000671386700,300.4230041503906000,-25.2723007202148440,23.5050296783447270,25.8164100646972660,123,4130,47,50,46,9363,2147169636,2147827035,2147700370,2147447012,2152613732,2156349220,2158927597,2148223753,1261,-2,8,2832
1379263713,5807,83.4499969482421900,23.8929996490478500,36.5452995300293000,342.6470947265625000,-37.0215988159179700,23.8690490722656250,24.3326606750488280,122,4130,49,50,46,9362,2147227008,2147888630,2147765750,2147447981,2153913846,2158134308,2160483456,2148377993,3585,-1,8,29621
1379263768,5807,82.0199966430664000,24.0212993621826170,36.5429000854492200,350.8623962402344000,-40.4218711853027340,23.9745597839355470,24.0538101196289060,123,4130,49,50,46,9361,2147233682,2147894500,2147765037,2147450029,2154206052,2158297142,2160331254,2148356754,112,-1,9,23971
1379263834,5808,80.2399978637695300,24.2639999389648440,36.5391006469726560,357.1936035156250000,-48.4487190246582000,24.2239608764648440,23.7819004058837900,123,4130,48,50,47,9352,2147303652,2147990838,2147886025,2147456128,2156059209,2161062994,2163283245,2148654070,1016,-2,8,14793
1379263922,5804,78.4499969482421900,24.3295001983642580,36.5295982360839840,361.7074890136719000,-51.2170982360839840,24.3100795745849600,23.6241703033447270,122,4130,47,50,47,9363,2147331117,2148024036,2147922889,2147456804,2156735771,2161925458,2164002678,2148744786,782,-1,9,37757
1379264040,5807,76.0899963378906200,24.4654006958007800,36.5255012512207000,388.1689147949219000,-55.9484100341796900,24.4573898315429700,22.8639698028564450,122,4130,47,50,46,9363,2147396297,2148100278,2148014482,2147462372,2158452352,2164250240,2166098020,2148962285,605,-1,9,45915
1379264117,5804,74.4800033569336000,24.5161991119384770,36.5257987976074200,384.6007995605469000,-57.7948913574218750,24.5149192810058600,22.9353809356689450,123,4130,47,50,47,9360,2147454381,2148171245,2148066139,2147460955,2160147337,2166585499,2168267803,2149179346,1203,-2,9,45060
1379264227,5809,72.3899993896484400,24.7872009277343750,36.4948005676269500,385.8129882812500000,-65.9462432861328100,24.7691898345947270,22.8128108978271500,122,4130,47,50,47,9357,2147529810,2148263872,2148167881,2147467904,2162275227,2169382189,2170635446,2149420681,1035,-2,9,31640
1379264345,5806,69.8899993896484400,25.0119991302490230,36.4726982116699200,395.1896057128906000,-73.2807083129882800,24.9983997344970700,22.4922199249267580,121,4130,47,50,45,9353,2147634523,2148384539,2148293814,2147484754,2165188150,2173251428,2173831259,2149786962,315,-1,8,39194
1379264411,5805,68.0800018310546900,25.1347999572753900,36.4646987915039060,415.9873046875000000,-77.2145233154296900,25.1215000152587900,21.9405994415283200,122,4130,47,50,46,9341,2147704539,2148465874,2148334738,2147481764,2166974336,2175594276,2175732388,2150007433,3313,-2,9,5474
1379264488,5805,66.5199966430664000,25.2961997985839840,36.4519004821777340,416.1979980468750000,-82.0018768310546900,25.2714691162109380,21.8828601837158200,122,4130,49,50,46,9346,2147763739,2148531227,2148373869,2147479872,2168724580,2177806564,2177547977,2150226642,2263,-2,9,29344
1379264629,5807,63.9599990844726560,25.4239997863769530,36.4314994812011700,413.8612976074219000,-86.6642532348632800,25.4176902770996100,21.8870105743408200,124,4130,47,50,46,9347,2147916205,2148703213,2148535076,2147491190,2172679890,2182520420,2181394468,2150727670,1927,-2,9,28674
1379264684,5807,61.9700012207031250,25.5645008087158200,36.4037017822265600,404.0869140625000000,-90.7745971679687500,25.5467491149902340,22.0777301788330080,121,4130,48,50,46,9344,2148050761,2148853988,2148716562,2147510628,2176022290,2186589769,2184874294,2151192155,1258,-1,9,24462
1379264750,5804,60.2999992370605500,25.5893993377685550,36.4057006835937500,455.1228942871094000,-92.1071090698242200,25.5886192321777340,20.8927192687988280,121,4130,47,50,46,9342,2148174637,2148990107,2148840996,2147523638,2179094582,2190182308,2187625517,2151521645,1149,-1,9,49149
1379264871,5805,58.7200012207031250,25.9671001434326170,36.3637008666992200,547.5838012695312000,-100.6279983520507800,25.8566799163818360,18.9960594177246100,122,4130,47,50,46,9338,2148317833,2149121508,2148921618,2147523821,2183012580,2194717961,2191016466,2151950116,1417,-1,9,52394
1379265044,5805,56.6100006103515600,26.3463001251220700,36.3325996398925800,531.0150756835938000,-115.0989990234375000,26.3132991790771500,19.1408901214599600,120,4130,48,50,46,9329,2148511250,2149285010,2149000484,2147525037,2186944109,2199025929,2193534473,2152223862,2926,-2,9,52316
1379265347,5806,52.5000000000000000,26.6308002471923830,36.3026008605957000,499.0490112304687500,-124.7673034667968800,26.6193809509277340,19.6411495208740230,121,4130,49,51,46,9323,2148981074,2149774912,2149467712,2147565421,2199211803,2212560429,2204335158,2153798838,1446,-2,9,115
1379265381,5804,51.8400001525878900,26.6774005889892580,36.2927017211914060,506.7243041992187500,-126.2825012207031200,26.6674194335937500,19.4765892028808600,120,4130,46,50,47,9327,2149067638,2149861248,2149536923,2147573714,2201515611,2215110774,2206293586,2154110089,1450,-2,9,1107
1379265600,5805,49.7200012207031250,26.9076995849609380,36.2374992370605500,482.6350097656250000,-133.6851043701172000,26.9024200439453120,19.8706207275390620,119,4130,48,51,47,9324,2149439680,2150208777,2149799222,2147593133,2210365760,2224596617,2212964041,2155029202,1537,-2,8,20153
1379265951,5807,47.9700012207031250,27.3782997131347660,36.0896987915039060,589.1776733398438000,-148.8114013671875000,27.3841800689697270,17.7769203186035160,116,4130,48,51,46,9338,2149892123,2150613677,2150183405,2147682048,2220706130,2235517970,2220069101,2155927808,580,-2,9,2652
1379266206,5808,46.7099990844726560,27.3864002227783200,36.0867004394531250,678.0048217773438000,-149.3025970458984400,27.3998603820800780,16.4129905700683600,118,4130,47,50,46,9350,2149470134,2150064082,2149514377,2147572187,2206355958,2215367405,2201120073,2153474953,185,-1,9,35237
1379266275,5804,44.5299987792968750,27.4057006835937500,36.0802001953125000,586.7576904296875000,-149.6110992431640600,27.4097099304199220,17.8083305358886720,119,4130,47,50,45,9344,2148849773,2149278235,2148657956,2147496960,2191194934,2193905508,2180887890,2151074834,3305,-1,9,10552
1379266332,5803,42.4900016784668000,27.4062995910644530,36.0802001953125000,591.2968750000000000,-149.9091949462890600,27.4192295074462900,17.7306594848632800,119,4130,48,51,46,9350,2151276781,2151764571,2150808338,2147666560,2254174765,2268910976,2241327067,2158913536,2969,-2,9,20589
1379266377,5805,40.8400001525878900,27.4088993072509770,36.0802001953125000,607.3413696289062000,-149.9857025146484400,27.4216709136962900,17.4709205627441400,118,4130,48,50,46,9347,2151593700,2152016036,2150942976,2147679643,2263230454,2277092681,2245874395,2159554313,2898,-1,9,22391
1379266434,5809,38.6899986267089840,27.4097995758056640,36.0805015563964840,622.9592895507812000,-150.0590057373047000,27.4240093231201170,17.2245903015136720,119,4130,49,50,46,9348,2152063497,2152398528,2151198034,2147707922,2278476288,2292100836,2255861165,2161265636,2772,-2,9,46623
1379266496,5807,36.0200004577636700,27.4099006652832030,36.0806999206543000,608.0228271484375000,-149.9812011718750000,27.4215297698974600,17.4601306915283200,117,4130,48,50,46,9349,2152784109,2153033179,2151658139,2147762651,2296587373,2308855497,2266255853,2163325129,2524,-2,9,46999